Middlebury State AP, Middlebu, VT

3:07 AM EST on December 09, 2019 (GMT -0500)
Middlebury State AP, Middlebu

Weather History for K6B0 - November, 2019

Change the Weather History Date:

Tuesday, November 12, 2019

  Actual Average (WUND) Record (WUND)
Temperature  
Mean Temperature 18 °F -  
Max Temperature 25 °F - - (-1)
Min Temperature 12 °F - - (-1)
Degree Days  
Heating Degree Days 46    
Moisture  
Dew Point 12 °F    
Average Humidity 73    
Maximum Humidity 95    
Minimum Humidity 48    
Precipitation  
Precipitation 0.08 in - - ()
Sea Level Pressure  
Sea Level Pressure 29.90 in    
Wind  
Wind Speed 9 mph ()    
Max Wind Speed 16 mph    
Max Gust Speed 23 mph    
Visibility 7.7 miles    
Events Snow    
Averages and records for this station are not official NWS values.
T = Trace of Precipitation, MM = Missing Value Source: Averaged Metar Reports

Daily Weather History Graph

Daily Weather History Graph

Search for Another Location

Airport or City:

Astronomy

Nov. 12, 2019 Rise Set
Actual Time 6:43 AM EST 4:29 PM EST
Civil Twilight 6:12 AM EST 5:00 PM EST
Nautical Twilight 5:37 AM EST 5:35 PM EST
Astronomical Twilight 5:03 AM EST 6:08 PM EST
Moon 4:56 PM EST (11/12) 6:29 AM EST (11/12)
Length of Visible Light 10h 48m
Length of Day
9h 46m
Full, 100% of the Moon is Illuminated
Nov 12
Full
Nov 19
Last Quarter
Nov 26
New
Dec 4
First Quarter
Dec 12
Full

Hourly Weather History & Observations

Time (EST) Temp. Windchill Dew Point Humidity Pressure Visibility Wind Dir Wind Speed Gust Speed Precip Events Conditions
12:17 AM 23.7 °F 14.0 °F 22.1 °F 94% 29.88 in 10.0 mi North 9.2 mph - N/A   Overcast
12:36 AM 23.5 °F 13.0 °F 22.1 °F 94% 29.86 in 10.0 mi North 10.4 mph - N/A   Overcast
12:55 AM 23.4 °F 14.3 °F 21.7 °F 94% 29.84 in 10.0 mi North 8.1 mph - N/A   Overcast
12:56 AM 23.4 °F 14.3 °F 21.7 °F 94% 29.84 in 10.0 mi North 8.1 mph - N/A   Overcast
1:19 AM 23.4 °F 17.4 °F 21.9 °F 94% 29.83 in 10.0 mi NNW 4.6 mph - N/A   Overcast
1:36 AM 23.2 °F 15.0 °F 21.9 °F 95% 29.82 in 10.0 mi NNW 6.9 mph - N/A   Overcast
1:55 AM 22.8 °F 12.9 °F 21.2 °F 93% 29.81 in 10.0 mi North 9.2 mph - N/A   Overcast
1:56 AM 22.8 °F 12.9 °F 21.2 °F 93% 29.81 in 10.0 mi North 9.2 mph - N/A   Overcast
2:15 AM 23.0 °F 13.1 °F 21.4 °F 94% 29.80 in 10.0 mi North 9.2 mph - N/A   Overcast
2:16 AM 23.0 °F 13.1 °F 21.4 °F 94% 29.80 in 10.0 mi North 9.2 mph - N/A   Overcast
2:39 AM 23.4 °F 12.8 °F 21.7 °F 94% 29.80 in 5.0 mi North 10.4 mph - N/A Snow Light Snow
2:57 AM 23.0 °F 12.4 °F 20.8 °F 91% 29.78 in 3.0 mi North 10.4 mph 19.6 mph 0.01 in Snow Light Snow
3:15 AM 23.0 °F 10.6 °F 20.3 °F 89% 29.76 in 10.0 mi North 13.8 mph 18.4 mph N/A Snow Light Snow
3:35 AM 22.6 °F 11.9 °F 20.3 °F 91% 29.75 in 4.0 mi North 10.4 mph - N/A Snow Light Snow
3:36 AM 22.6 °F 10.7 °F 20.3 °F 91% 29.75 in 4.0 mi North 12.7 mph - N/A Snow Light Snow
3:55 AM 22.5 °F 10.5 °F 19.8 °F 89% 29.77 in 7.0 mi North 12.7 mph 17.3 mph 0.01 in Snow Light Snow
3:59 AM 22.5 °F 10.5 °F 19.4 °F 88% 29.77 in 5.0 mi North 12.7 mph 17.3 mph 0.01 in Snow Light Snow
4:17 AM 22.1 °F 10.6 °F 19.4 °F 89% 29.77 in 3.0 mi North 11.5 mph 17.3 mph 0.01 in Snow Light Snow
4:35 AM 21.7 °F 8.0 °F 18.5 °F 87% 29.77 in 3.0 mi North 16.1 mph 23.0 mph 0.03 in Snow Light Snow
4:55 AM 21.2 °F 9.5 °F 18.5 °F 89% 29.78 in 4.0 mi North 11.5 mph - 0.05 in Snow Light Snow
4:56 AM 21.2 °F 8.9 °F 18.5 °F 89% 29.77 in 4.0 mi North 12.7 mph 17.3 mph 0.05 in Snow Light Snow
5:16 AM 21.0 °F 8.1 °F 18.0 °F 88% 29.78 in 2.0 mi North 13.8 mph 23.0 mph N/A Snow Light Snow
5:38 AM 20.7 °F 8.8 °F 18.3 °F 91% 29.79 in 1.2 mi North 11.5 mph - 0.01 in Snow Light Snow
5:56 AM 20.5 °F 8.6 °F 18.0 °F 90% 29.78 in 2.0 mi North 11.5 mph 17.3 mph 0.01 in Snow Light Snow
6:35 AM 20.3 °F 9.0 °F 18.0 °F 91% 29.80 in 1.2 mi North 10.4 mph - N/A Snow Light Snow
6:36 AM 20.3 °F 9.8 °F 18.0 °F 91% 29.80 in 1.2 mi North 9.2 mph - N/A Snow Light Snow
6:55 AM 20.1 °F 8.8 °F 17.4 °F 89% 29.80 in 1.2 mi North 10.4 mph - N/A Snow Light Snow
6:59 AM 19.9 °F 7.9 °F 17.4 °F 90% 29.81 in 1.5 mi North 11.5 mph - N/A Snow Light Snow
7:17 AM 19.8 °F 7.7 °F 17.2 °F 90% 29.81 in 1.0 mi North 11.5 mph - N/A Snow Light Snow
7:35 AM 19.9 °F 8.6 °F 17.1 °F 89% 29.83 in 1.2 mi North 10.4 mph 18.4 mph N/A Snow Light Snow
7:55 AM 19.9 °F 10.1 °F 16.9 °F 88% 29.84 in 1.5 mi North 8.1 mph - N/A Snow Light Snow
7:56 AM 19.9 °F 11.1 °F 16.9 °F 88% 29.84 in 1.5 mi North 6.9 mph - N/A Snow Light Snow
8:15 AM 20.1 °F 10.3 °F 17.2 °F 89% 29.84 in 1.5 mi North 8.1 mph - N/A Snow Light Snow
8:16 AM 20.1 °F 9.5 °F 17.2 °F 89% 29.84 in 1.5 mi North 9.2 mph - N/A Snow Light Snow
8:39 AM 20.1 °F 8.8 °F 17.2 °F 89% 29.84 in 1.8 mi North 10.4 mph - N/A Snow Light Snow
8:57 AM 20.1 °F 11.3 °F 17.4 °F 89% 29.84 in 1.8 mi North 6.9 mph - N/A Snow Light Snow
9:16 AM 20.3 °F 12.5 °F 17.6 °F 89% 29.85 in 2.0 mi NNW 5.8 mph - N/A Snow Light Snow
9:35 AM 20.7 °F 10.2 °F 17.6 °F 88% 29.87 in 3.0 mi NNW 9.2 mph 17.3 mph N/A Snow Light Snow
9:36 AM 20.7 °F 9.5 °F 17.6 °F 88% 29.87 in 3.0 mi NNW 10.4 mph 17.3 mph N/A Snow Light Snow
9:55 AM 20.3 °F 9.0 °F 17.2 °F 88% 29.87 in 7.0 mi NNW 10.4 mph - N/A Snow Light Snow
9:59 AM 20.3 °F 9.0 °F 16.7 °F 86% 29.87 in 7.0 mi NNW 10.4 mph 16.1 mph N/A   Overcast
10:17 AM 20.3 °F 9.0 °F 16.7 °F 86% 29.87 in 7.0 mi NNW 10.4 mph 16.1 mph N/A Snow Light Snow
10:35 AM 21.0 °F 11.4 °F 17.1 °F 85% 29.87 in 10.0 mi NNW 8.1 mph - N/A Snow Light Snow
10:55 AM 22.1 °F 10.6 °F 17.4 °F 82% 29.88 in 10.0 mi North 11.5 mph - N/A Snow Light Snow
10:56 AM 22.3 °F 10.2 °F 17.2 °F 81% 29.87 in 10.0 mi North 12.7 mph - N/A   Overcast
11:15 AM 22.6 °F 11.9 °F 16.5 °F 77% 29.87 in 10.0 mi North 10.4 mph 16.1 mph N/A   Mostly Cloudy
11:16 AM 22.6 °F 11.3 °F 16.5 °F 77% 29.87 in 10.0 mi North 11.5 mph 16.1 mph N/A   Mostly Cloudy
11:38 AM 24.3 °F 13.9 °F 16.0 °F 71% 29.87 in 10.0 mi NNW 10.4 mph 18.4 mph N/A   Mostly Cloudy
11:56 AM 24.1 °F 14.4 °F 15.6 °F 70% 29.87 in 10.0 mi NNW 9.2 mph 16.1 mph N/A Snow Light Snow
12:16 PM 24.3 °F 17.3 °F 15.3 °F 69% 29.88 in 10.0 mi North 5.8 mph - N/A   Overcast
12:35 PM 24.6 °F 14.4 °F 14.9 °F 67% 29.88 in 10.0 mi North 10.4 mph - N/A   Overcast
12:55 PM 25.2 °F 18.3 °F 14.0 °F 63% 29.87 in 10.0 mi North 5.8 mph - N/A   Overcast
1:18 PM 24.8 °F 15.3 °F 13.8 °F 63% 29.88 in 10.0 mi NNW 9.2 mph - N/A   Scattered Clouds
1:35 PM 24.8 °F 16.1 °F 13.5 °F 62% 29.88 in 10.0 mi NNW 8.1 mph - N/A   Mostly Cloudy
1:56 PM 24.8 °F 15.3 °F 13.1 °F 61% 29.89 in 10.0 mi North 9.2 mph - N/A   Overcast
2:15 PM 24.6 °F 17.7 °F 13.1 °F 62% 29.90 in 10.0 mi NNW 5.8 mph - N/A   Overcast
2:16 PM 24.6 °F 17.7 °F 13.3 °F 62% 29.90 in 10.0 mi NNW 5.8 mph - N/A   Overcast
2:39 PM 24.6 °F 14.4 °F 13.1 °F 62% 29.91 in 10.0 mi NNW 10.4 mph - N/A   Overcast
2:56 PM 23.9 °F 14.2 °F 13.5 °F 64% 29.91 in 10.0 mi NNW 9.2 mph - N/A   Mostly Cloudy
3:16 PM 23.9 °F 15.0 °F 12.7 °F 62% 29.92 in 10.0 mi NNW 8.1 mph - N/A   Mostly Cloudy
3:35 PM 23.9 °F 15.8 °F 11.8 °F 60% 29.92 in 10.0 mi NNW 6.9 mph - N/A   Overcast
3:36 PM 23.9 °F 15.0 °F 11.7 °F 60% 29.92 in 10.0 mi NNW 8.1 mph - N/A   Overcast
3:55 PM 23.7 °F 15.6 °F 10.0 °F 56% 29.92 in 10.0 mi NNW 6.9 mph - N/A   Overcast
3:59 PM 23.5 °F 14.5 °F 10.4 °F 57% 29.93 in 10.0 mi NNW 8.1 mph - N/A   Overcast
4:17 PM 23.4 °F 14.3 °F 9.3 °F 55% 29.94 in 10.0 mi NNW 8.1 mph - N/A   Overcast
4:35 PM 22.6 °F 15.3 °F 8.6 °F 55% 29.94 in 10.0 mi NNW 5.8 mph - N/A   Overcast
4:55 PM 22.1 °F 12.0 °F 8.4 °F 56% 29.95 in 10.0 mi NNW 9.2 mph - N/A   Overcast
5:15 PM 21.2 °F 10.9 °F 8.1 °F 57% 29.96 in 10.0 mi North 9.2 mph - N/A   Overcast
5:16 PM 21.2 °F 10.9 °F 8.1 °F 57% 29.96 in 10.0 mi North 9.2 mph - N/A   Overcast
5:38 PM 19.8 °F 7.7 °F 6.1 °F 55% 29.98 in 10.0 mi NNW 11.5 mph 20.7 mph N/A   Overcast
5:56 PM 18.7 °F 8.6 °F 5.0 °F 55% 29.99 in 10.0 mi North 8.1 mph - N/A   Scattered Clouds
6:16 PM 17.6 °F 7.3 °F 5.4 °F 59% 30.00 in 10.0 mi North 8.1 mph 17.3 mph N/A   Clear
6:35 PM 16.7 °F 7.2 °F 4.5 °F 59% 30.00 in 10.0 mi North 6.9 mph - N/A   Clear
6:36 PM 16.7 °F 6.2 °F 4.5 °F 59% 30.00 in 10.0 mi North 8.1 mph - N/A   Clear
6:55 PM 17.2 °F 6.8 °F 3.6 °F 55% 30.01 in 10.0 mi NNW 8.1 mph 19.6 mph N/A   Clear
6:59 PM 17.2 °F 6.0 °F 3.6 °F 55% 30.01 in 10.0 mi NNW 9.2 mph 19.6 mph N/A   Clear
7:17 PM 17.1 °F 6.6 °F 2.8 °F 54% 30.01 in 10.0 mi NNW 8.1 mph 19.6 mph N/A   Scattered Clouds
7:35 PM 16.7 °F 3.2 °F 2.3 °F 53% 30.01 in 10.0 mi NNW 12.7 mph 18.4 mph N/A   Mostly Cloudy
7:55 PM 16.9 °F 4.8 °F 1.8 °F 52% 30.02 in 10.0 mi NNW 10.4 mph 18.4 mph N/A   Mostly Cloudy
7:56 PM 16.9 °F 4.1 °F 1.8 °F 52% 30.02 in 10.0 mi NNW 11.5 mph 17.3 mph N/A   Mostly Cloudy
8:15 PM 16.7 °F 3.8 °F 2.1 °F 53% 30.02 in 10.0 mi NNW 11.5 mph - N/A   Overcast
8:16 PM 16.9 °F 4.1 °F 2.1 °F 52% 30.02 in 10.0 mi NNW 11.5 mph - N/A   Overcast
8:38 PM 16.5 °F 3.6 °F 1.6 °F 52% 30.04 in 10.0 mi NNW 11.5 mph 19.6 mph N/A   Mostly Cloudy
8:57 PM 16.3 °F 5.7 °F 0.5 °F 50% 30.04 in 10.0 mi NNW 8.1 mph 18.4 mph N/A   Scattered Clouds
9:15 PM 15.4 °F 8.1 °F 2.3 °F 56% 30.05 in 10.0 mi NW 4.6 mph - N/A   Scattered Clouds
9:36 PM 15.4 °F 2.3 °F -1.3 °F 48% 30.05 in 10.0 mi NW 11.5 mph 20.7 mph N/A   Scattered Clouds
9:55 PM 14.5 °F 1.1 °F -0.9 °F 50% 30.05 in 10.0 mi North 11.5 mph 16.1 mph N/A   Scattered Clouds
9:59 PM 14.5 °F 3.6 °F -0.9 °F 50% 30.05 in 10.0 mi North 8.1 mph 16.1 mph N/A   Scattered Clouds
10:17 PM 14.0 °F 2.9 °F -0.6 °F 52% 30.05 in 10.0 mi North 8.1 mph - N/A   Mostly Cloudy
10:35 PM 13.1 °F 4.0 °F -0.6 °F 54% 30.05 in 10.0 mi North 5.8 mph - N/A   Overcast
10:55 PM 12.9 °F 3.8 °F -0.8 °F 54% 30.05 in 10.0 mi North 5.8 mph - N/A   Mostly Cloudy
10:56 PM 12.9 °F 2.6 °F -0.8 °F 54% 30.05 in 10.0 mi North 6.9 mph - N/A   Mostly Cloudy
11:15 PM 12.7 °F 1.4 °F -1.3 °F 54% 30.06 in 10.0 mi North 8.1 mph - N/A   Scattered Clouds
11:16 PM 12.7 °F 0.4 °F -1.3 °F 54% 30.06 in 10.0 mi North 9.2 mph - N/A   Scattered Clouds
11:38 PM 12.7 °F 2.4 °F -1.3 °F 54% 30.06 in 10.0 mi NNW 6.9 mph - N/A   Clear
11:56 PM 12.0 °F 0.5 °F -0.4 °F 58% 30.07 in 10.0 mi North 8.1 mph - N/A   Clear